CAPE
47 46 1 0 0 0 0 0 0 0 0 0 0 0 0 0 0 0 0 0 0 0 0 0 0 0 0 0 0 0 0 0 0 0 0 0 0 0 0 0 0 0 0 0
78 13 0 2 0 2 0 0 0 0 0 0 0 0 0 0 0 0 0 0 0 0 0 0 0 0 0 0 0 0 0 0 0 0 0 0 0 0 0 0 0 0 0 0
28 0 0 3 2 4 0 0 0 0 0 0 3 0 0 0 0 0 0 0 0 0 0 0 0 0 0 0 0 0 0 0 0 0 0 0 0 0 0 0 0 0 0 0
93 0 15 11 7 1 0 0 0 1 0 2 2 0 0 0 0 0 0 0 0 0 0 0 0 0 0 0 0 0 0 0 0 0 0 0 0 0 0 0 0 0 0 0
18 10 6 27 0 0 0 0 0 0 0 2 0 0 0 0 0 0 0 0 0 0 0 0 0 0 0 0 0 0 0 0 0 0 0 0 0 0 0 0 0 0 0 0
5 9 19 0 5 0 1 0 0 5 6 2 0 0 0 0 0 0 0 0 0 0 0 0 0 0 0 0 0 0 0 0 0 0 0 0 0 0 0 0 0 0 0 0
5 8 4 23 41 13 6 3 0 3 2 0 0 0 0 0 0 0 0 0 0 0 0 0 0 0 0 0 0 0 0 0 0 0 0 0 0 0 0 0 0 0 0 0
1 1 19 0 2 5 9 6 0 0 0 0 0 0 0 0 0 0 0 0 0 0 0 0 0 0 0 0 0 0 0 0 0 0 0 0 0 0 0 0 0 0 0 0
2 0 0 4 53 9 20 14 0 0 0 0 0 0 0 0 0 0 0 0 0 0 0 0 0 0 0 0 0 0 0 0 0 0 0 0 0 0 3 0 0 0 0 0
0 3 0 0 28 6 23 0 2 0 0 0 0 0 0 0 0 0 0 0 0 0 0 0 0 0 0 0 0 0 0 0 0 0 0 0 0 0 0 3 5 1 0 0
2 6 5 0 13 15 2 15 8 0 0 0 0 0 0 0 0 0 0 0 0 0 0 0 0 0 0 0 0 0 0 0 0 0 0 0 0 0 0 0 0 0 0 0
1 1 0 0 0 0 19 5 6 2 0 0 0 0 0 0 0 0 0 0 0 0 0 0 0 0 0 0 0 0 0 0 0 0 0 0 0 0 0 0 0 0 0 0
1 4 0 1 6 7 1 0 4 12 0 0 0 0 0 0 0 0 0 0 0 0 0 0 0 0 0 0 0 0 0 0 0 0 0 0 0 0 0 0 0 0 0 1
0 0 0 0 0 2 6 2 3 3 0 3 0 0 0 0 0 0 0 0 0 0 0 0 0 0 0 0 0 0 0 0 0 0 0 0 0 0 0 0 0 0 0 0
9 1 0 0 0 0 0 1 9 4 1 0 0 3 0 0 0 0 0 0 0 0 0 0 0 0 0 0 0 0 0 0 0 0 0 0 0 0 0 0 0 0 0 0
1 0 0 0 0 0 0 0 0 0 2 0 0 0 0 0 0 0 0 0 0 0 0 0 0 0 0 0 0 0 0 0 0 0 0 0 0 0 0 0 0 0 0 0
0 0 0 0 0 0 0 0 0 0 0 0 0 0 0 0 0 0 0 0 0 0 0 0 0 0 0 0 0 0 0 0 0 0 0 0 0 0 0 0 0 0 0 0
0 0 0 0 0 0 0 0 0 0 0 0 0 0 0 0 0 0 0 0 0 0 0 0 0 0 0 0 0 0 0 0 0 0 0 0 0 0 0 0 0 0 0 0
0 0 0 0 0 0 0 0 0 0 0 0 0 0 0 0 0 0 0 0 0 0 0 0 0 0 0 0 0 0 0 0 0 0 0 0 0 0 0 0 0 0 0 0
0 0 0 0 0 0 0 0 0 0 0 0 0 0 0 0 0 0 0 0 0 0 0 0 0 0 0 0 0 0 0 0 0 0 0 0 0 0 0 0 0 0 0 0
0 0 0 0 0 0 0 0 0 0 0 0 0 0 0 0 0 0 0 0 0 0 0 0 0 0 0 0 0 0 0 0 0 0 0 0 0 0 0 0 0 0 0 0
0 0 1 0 0 1 0 0 0 0 0 0 0 0 0 0 0 0 0 0 0 0 0 0 0 0 0 0 0 0 0 0 0 0 0 0 0 0 0 0 0 0 0 0
0 0 0 0 0 0 0 0 0 0 0 0 0 0 0 0 0 0 0 0 0 0 0 0 0 0 0 0 0 2 0 0 0 0 0 2 0 0 0 0 0 0 0 0
0 0 0 0 0 0 0 0 0 0 0 0 0 0 0 0 0 0 0 0 0 0 0 0 0 0 0 0 3 1 0 0 0 0 2 3 4 5 0 0 0 0 0 0
0 0 0 0 0 0 0 0 0 0 0 0 0 0 0 0 0 0 0 0 0 1 2 3 5 6 3 1 2 0 0 0 2 1 1 2 7 8 6 7 5 0 0 0
0 0 0 0 0 0 0 0 0 0 0 0 0 0 0 0 0 0 0 0 1 2 3 2 2 3 1 1 0 0 0 0 0 3 1 0 0 0 2 7 7 5 0 0
CIN
-1 -2 -2 0 0 0 0 0 0 0 0 0 0 0 0 0 0 0 0 0 0 0 0 0 0 0 0 0 0 0 0 0 0 0 0 0 0 0 0 0 0 0 0 0
0 -2 0 -24 0 -41 0 0 0 0 0 0 0 0 0 0 0 0 0 0 0 0 0 0 0 0 0 0 0 0 0 0 0 0 0 0 0 0 0 0 0 0 0 0
-1 0 0 -4 -13 -2 0 -3 0 0 0 0 -7 0 0 0 0 0 0 0 0 0 0 0 0 0 0 0 0 0 0 0 0 0 0 0 0 0 0 0 0 0 0 0
-1 0 -13 -9 -13 -8 0 0 0 -2 0 0 -8 0 0 0 0 0 0 0 0 0 0 0 0 0 0 0 0 0 0 0 0 0 0 0 0 -1 0 0 0 0 0 0
-4 -5 -7 -8 0 0 0 0 0 0 0 0 0 0 0 0 0 0 0 0 0 0 0 0 0 0 0 0 0 0 0 0 0 0 0 0 0 0 0 0 0 0 0 0
-1 -41 -11 0 -6 0 -1 0 -2 -23 0 -2 0 0 0 0 0 0 0 0 0 0 0 0 0 0 0 0 0 0 0 0 0 0 0 0 0 0 0 0 0 0 0 0
0 0 -19 -18 -9 -17 -39 -19 0 -14 0 0 0 0 0 0 0 0 0 0 0 0 0 0 0 0 0 0 0 0 0 0 0 0 0 0 0 0 0 0 0 0 0 0
0 0 -2 0 -1 -2 -10 0 0 0 0 0 0 0 0 0 0 0 0 0 0 0 0 0 0 0 0 0 0 0 0 0 0 0 0 0 0 0 0 0 0 0 0 0
0 0 -2 -23 -28 -27 -3 -3 0 0 0 0 0 0 0 0 0 0 0 0 0 0 0 0 0 0 0 0 0 0 0 0 0 0 0 0 0 0 -23 -2 -3 0 0 0
0 -6 0 0 -28 -45 -33 0 -3 -1 -2 0 0 0 0 0 0 0 0 0 0 0 0 0 0 0 0 0 0 0 0 0 0 0 0 0 0 0 0 -33 -28 -9 -7 0
0 0 0 0 -15 -1 -1 -1 -5 0 0 0 0 0 0 0 0 0 0 0 0 0 0 0 0 0 0 0 0 0 0 0 0 0 0 0 0 0 0 0 0 0 0 0
-1 -2 0 0 0 0 0 -1 -2 -1 0 0 0 0 0 0 0 0 0 0 0 0 0 0 0 0 0 0 0 0 0 0 0 0 0 0 0 0 0 0 0 0 0 0
-5 -1 0 -1 0 0 0 0 0 0 0 0 0 0 0 0 0 0 0 0 0 0 0 0 0 0 0 0 0 0 0 0 0 0 0 0 0 0 0 0 0 0 0 -30
0 0 0 0 0 -6 0 0 0 0 0 0 0 0 0 0 0 0 0 0 0 0 0 0 0 0 0 0 0 0 0 0 0 0 0 0 0 0 0 0 0 0 0 0
-17 0 0 0 0 0 0 0 0 0 0 0 0 -21 0 0 0 0 0 0 0 0 0 0 0 0 0 0 0 0 0 0 0 0 0 0 0 0 0 0 0 0 0 0
-12 0 0 0 0 0 0 0 0 0 -62 0 0 0 0 0 0 0 0 0 0 0 0 0 0 0 0 0 0 0 0 0 0 0 0 0 0 0 0 0 0 0 0 0
0 0 0 0 0 0 0 0 0 0 0 0 0 0 0 0 0 0 0 0 0 0 0 0 0 0 0 0 0 0 0 0 0 0 0 0 0 0 0 0 0 0 0 0
0 0 0 0 0 0 0 0 0 0 0 0 0 0 0 0 0 0 0 0 0 0 0 0 0 0 0 0 0 0 0 0 0 0 0 0 0 0 0 0 0 0 0 0
0 0 0 -18 0 0 0 0 0 0 0 0 0 0 0 0 0 0 0 0 0 0 0 0 0 0 0 0 0 0 0 0 0 0 0 0 0 0 0 0 0 0 0 0
0 0 0 0 -6 0 0 0 0 0 0 0 0 0 0 0 0 0 0 0 0 0 0 0 0 0 0 0 0 0 0 0 0 0 0 0 0 0 0 0 0 0 0 0
0 0 0 0 0 0 0 0 0 0 0 0 0 0 0 0 0 0 0 0 0 0 0 0 0 0 0 0 0 0 0 0 0 0 0 0 0 0 0 0 0 0 0 0
0 0 -1 0 -2 -1 0 0 0 0 0 0 0 0 0 0 0 0 0 0 0 0 0 0 0 0 0 0 0 0 0 0 -1 0 0 0 0 0 0 0 0 0 0 0
0 0 0 0 0 0 0 0 0 0 0 0 0 0 0 0 0 0 0 0 0 0 0 0 0 0 0 0 0 0 0 0 0 0 0 0 0 0 0 0 0 0 0 0
0 0 0 0 0 0 0 0 0 0 0 0 0 0 0 0 0 0 0 0 0 0 0 0 0 0 0 0 0 0 0 0 0 -1 0 0 0 0 0 0 0 0 0 0
0 0 0 0 0 0 0 0 0 0 0 0 0 0 0 0 0 0 0 0 0 0 0 0 0 0 0 0 0 0 0 0 0 0 0 0 0 0 0 0 0 0 0 0
0 0 0 0 0 0 0 0 0 0 0 0 0 0 0 0 0 0 0 0 0 0 0 0 0 0 0 0 0 0 0 0 0 0 0 0 0 0 0 0 0 -1 -1 0
Wind_Speed
6 6 16 15 13 4 5 3 3 1 4 10 6 8 9 8 8 9 9 9 9 10 9 8 13 13 15 14 15 16 14 13 11 9 10 8 11 8 7 9 11 12 10 12
6 19 17 4 9 9 5 5 5 6 3 2 8 20 16 13 11 9 8 9 9 9 9 10 8 10 15 19 19 16 16 16 15 12 11 10 8 8 9 7 11 13 12 13
16 13 11 14 10 14 12 18 13 8 3 2 8 20 17 13 12 14 17 18 14 12 13 10 11 13 14 16 18 17 18 17 15 16 8 7 3 2 5 8 9 11 14 14
15 16 14 12 15 14 17 15 11 9 5 5 4 10 8 6 14 14 15 18 20 19 18 15 9 7 9 15 16 17 16 15 16 16 13 15 13 13 13 12 10 10 12 14
11 14 16 16 23 18 11 12 14 7 6 1 7 4 8 7 7 18 11 12 13 15 16 13 10 9 7 10 11 14 15 14 15 14 17 13 15 12 10 10 12 13 12 15
12 8 17 18 10 22 6 9 7 4 6 8 12 9 9 8 10 4 4 7 6 8 8 7 5 5 6 6 2 5 7 12 13 13 18 20 19 16 12 11 12 11 10 11
14 17 3 10 10 16 7 10 6 6 7 6 8 10 18 9 7 4 6 8 8 8 8 8 9 8 7 6 4 3 6 8 8 13 15 17 19 17 17 15 12 12 11 10
7 8 14 10 11 12 18 12 6 6 5 6 9 10 9 12 11 7 7 8 9 9 8 8 7 6 7 8 8 6 5 8 7 8 12 14 15 12 12 14 12 11 12 12
6 5 4 3 6 14 14 14 5 5 2 2 6 8 10 10 5 5 9 9 7 8 7 5 4 3 4 5 7 6 8 8 8 8 8 9 11 13 13 16 13 11 13 12
5 3 3 11 1 2 9 11 6 3 7 6 5 5 6 4 7 8 10 10 6 6 6 3 4 4 4 5 7 7 6 6 7 8 7 7 8 11 13 13 15 14 14 14
10 4 1 5 6 15 6 11 8 6 4 8 3 6 5 9 10 11 9 9 9 7 4 4 3 5 4 3 4 7 7 7 7 6 6 7 7 8 9 13 14 15 14 15
10 4 5 5 7 4 9 6 7 10 9 4 3 5 5 9 10 7 7 7 5 4 1 5 5 6 6 7 7 6 7 7 7 7 7 7 7 7 7 10 13 13 14 12
12 6 3 2 3 8 5 3 6 3 3 4 5 6 1 9 7 7 9 5 5 5 3 4 6 6 7 8 7 8 8 8 8 7 7 7 7 7 9 9 9 8 11 12
11 5 5 10 5 5 4 11 16 6 2 5 5 3 5 3 7 5 5 4 5 2 3 3 5 8 8 8 8 10 11 9 9 9 8 8 8 8 9 10 10 11 11 11
7 7 3 3 8 5 6 5 9 9 8 2 8 11 16 14 6 4 4 1 4 7 10 11 11 10 11 13 12 12 12 11 12 13 10 10 9 9 9 10 10 9 8 12
6 4 5 2 4 1 3 6 9 16 14 14 13 18 7 3 4 8 9 10 10 13 13 13 13 13 13 13 14 14 14 14 14 14 14 13 11 11 10 10 11 8 8 10
7 5 4 4 1 5 3 17 12 4 5 12 10 14 6 5 6 11 10 11 12 11 12 12 12 12 13 14 14 14 15 15 14 14 14 11 11 12 13 9 10 13 12 9
6 6 4 3 4 1 10 3 13 15 5 6 8 13 7 1 14 13 11 11 10 11 12 13 13 14 14 14 13 14 14 14 13 13 13 14 14 13 14 10 10 12 11 13
4 5 3 5 3 6 10 2 6 6 2 11 5 12 11 7 10 9 12 11 10 10 10 10 11 14 17 15 15 16 15 14 14 14 13 15 16 17 15 15 14 11 9 12
5 5 6 2 6 9 6 5 4 5 2 10 10 12 13 11 3 1 12 11 10 11 10 12 13 14 13 15 18 17 15 15 16 16 17 16 16 16 17 16 15 12 8 11
4 3 6 4 3 7 7 8 4 7 3 6 9 10 10 5 4 11 16 16 13 12 15 15 14 14 14 17 16 18 16 16 16 17 18 19 18 17 16 16 14 12 11 10
7 7 4 3 2 7 9 4 3 2 9 9 8 9 9 8 8 10 12 14 15 17 18 16 16 15 15 15 15 19 17 17 17 20 21 20 18 15 13 15 15 14 12 11
2 7 8 6 4 6 14 17 9 10 8 6 9 10 12 13 12 13 13 13 14 16 15 15 16 19 14 15 15 18 19 18 22 21 21 20 21 19 16 17 16 13 12 10
1 1 4 7 4 8 10 11 10 9 8 6 8 9 11 12 15 15 14 13 13 13 15 15 17 19 20 15 15 17 18 20 20 21 20 18 19 19 18 14 12 12 11 11
1 2 5 7 6 8 8 10 8 7 8 9 10 10 12 14 14 15 15 16 15 16 15 15 16 17 20 20 18 17 18 18 19 19 18 17 14 16 17 15 14 12 14 12
2 3 4 4 8 2 6 7 8 8 10 11 12 13 13 13 15 17 14 15 14 16 16 15 16 17 18 18 18 18 16 16 17 18 15 14 14 14 13 14 15 19 23 25
Wind_Direction
185 186 217 204 200 212 128 129 196 267 324 338 345 298 285 276 273 281 271 252 241 246 251 216 213 197 195 191 193 203 201 197 191 196 203 210 213 207 208 206 203 197 199 201
185 222 221 111 185 182 207 186 233 303 267 0 329 308 301 282 271 248 257 272 253 262 253 254 211 196 196 195 199 198 205 201 194 195 206 212 211 218 214 208 202 200 198 200
209 230 163 186 196 207 215 224 218 240 12 193 290 278 257 260 251 260 250 249 246 236 240 236 233 208 209 204 202 199 200 201 199 202 196 201 201 206 205 219 212 205 199 199
219 221 180 186 196 182 222 215 210 199 159 231 157 291 240 247 259 256 261 247 246 247 240 238 232 236 209 221 207 204 199 193 199 193 196 201 206 213 220 224 223 216 204 205
202 192 199 197 203 178 225 156 188 167 178 251 204 248 278 233 256 253 248 239 244 239 236 232 225 236 235 213 203 210 206 200 200 195 201 203 214 219 217 217 215 216 216 211
274 310 194 204 181 178 143 136 164 167 214 217 218 193 264 204 222 298 303 78 90 82 66 73 56 34 32 16 209 236 224 213 207 199 205 207 212 217 217 214 214 213 216 216
215 245 290 159 151 182 203 153 180 205 205 228 177 178 252 285 264 193 166 111 101 94 74 59 37 22 20 22 16 321 224 237 225 214 215 218 221 218 221 217 217 215 219 217
203 192 197 177 195 188 193 201 160 197 198 235 132 223 253 238 260 156 124 126 111 83 66 50 38 23 9 358 353 345 297 260 235 222 226 226 224 225 224 223 222 220 222 221
185 233 279 240 194 156 180 209 215 103 50 60 209 271 302 269 173 119 105 88 91 87 71 68 28 12 334 325 320 327 329 311 291 256 236 226 227 227 228 230 226 226 225 227
172 310 339 208 356 269 190 155 190 182 183 219 259 253 226 93 98 111 110 114 123 104 71 337 302 305 327 310 296 304 296 289 287 288 271 254 236 230 230 229 227 225 226 223
154 190 118 61 213 223 207 195 205 165 164 203 173 259 247 188 145 127 131 134 144 131 165 270 296 310 326 306 301 291 292 297 301 300 288 280 263 245 231 229 227 224 226 224
179 173 201 189 199 268 335 200 241 191 184 236 157 228 112 131 144 130 100 113 128 138 181 289 315 333 339 345 346 333 306 298 287 283 287 282 279 272 253 245 241 232 227 223
157 186 146 213 142 173 191 290 336 166 64 196 139 233 335 100 107 103 109 125 163 180 210 313 344 342 345 351 350 341 331 314 301 298 287 285 281 280 275 262 248 232 230 231
148 171 199 224 153 134 174 202 200 281 65 164 228 4 286 130 98 97 124 183 203 235 276 300 360 2 10 353 350 350 338 329 321 313 299 289 285 282 280 277 266 254 243 237
161 200 187 132 133 143 145 158 194 196 195 182 212 210 242 290 84 134 184 18 35 4 10 29 37 24 8 1 353 349 342 340 342 338 318 297 293 291 289 285 277 269 257 249
169 222 159 277 127 185 155 217 199 203 227 233 251 264 170 102 20 12 354 9 39 45 33 24 18 14 4 353 347 343 345 347 339 334 327 319 315 304 293 287 286 282 272 263
142 126 92 238 270 139 349 222 219 220 202 215 220 254 79 48 57 51 55 42 42 27 19 14 8 356 348 346 341 342 336 332 331 331 328 323 318 313 307 293 298 288 279 276
120 100 80 141 34 359 240 301 205 215 244 337 313 297 47 293 95 78 43 44 25 14 9 357 352 343 342 334 336 334 332 326 324 322 326 330 330 322 314 298 280 280 277 272
89 112 97 143 179 295 300 263 145 154 123 6 352 26 6 347 112 78 35 27 12 5 348 354 338 334 324 327 335 333 327 326 326 327 327 326 324 320 316 306 295 277 272 274
48 62 116 114 156 205 252 292 236 128 217 15 34 31 10 339 98 75 4 0 355 346 345 335 333 324 322 334 334 328 326 329 326 327 323 321 314 309 308 304 298 285 261 266
121 128 167 190 181 283 250 278 323 109 202 40 43 30 20 41 21 322 342 338 337 334 335 334 330 325 331 332 326 322 323 323 318 317 320 315 308 303 301 300 298 286 271 268
159 148 182 129 137 257 15 331 167 68 67 52 36 17 355 333 322 327 321 321 327 330 333 334 326 327 326 324 328 316 315 317 325 322 312 310 306 303 301 300 302 292 276 266
172 177 173 162 182 73 42 83 64 52 74 34 14 352 345 334 333 330 326 323 325 325 324 330 325 314 320 327 317 313 318 330 320 314 309 305 305 306 302 300 297 294 280 265
148 115 111 128 83 117 92 71 73 62 64 30 10 350 342 331 331 329 328 330 329 330 323 323 320 316 313 318 321 312 320 316 311 305 303 309 309 301 300 295 289 282 275 268
181 353 129 87 116 123 95 60 55 47 32 17 1 353 346 339 333 329 333 332 329 325 325 322 317 314 313 320 318 320 314 313 310 310 306 300 300 305 303 291 285 271 264 258
357 145 165 174 134 88 106 75 38 28 19 12 357 349 345 341 336 337 329 329 325 325 322 323 320 315 313 312 314 311 313 315 308 304 307 303 300 297 292 288 286 265 259 257